Location: Forest
(37.3641°N, 79.2902°W)
Time: 20:08:26
(UTC+00:00)

Explorer 11/Cluster Stage 4 - Pass Details

Date: 16 November 2024
Orbit: 464 x 1202 km, 28.8° (Epoch: 03 December)

Event Time Altitude Azimuth Distance (km) Brightness Sun altitude
Exits shadow 08:51:42 13° 121° (ESE) 1,817 8.9 -37.0°
Drops below altitude 10° 08:52:21 10° 116° (ESE) 2,002 9.3 -36.8°
Sets 08:54:44 0° 104° (ESE) 2,801 10.3 -36.4°
